| time (UTC) | temp C | wind direction | speed KPH | gust KPH | rain 1hr cm | rain 24hr cm | rain mn cm | humidity % | barometer mb |
| 20260508193150 | 32 | 24 | 0.0 | 0.0 | 0.00 | 0.00 | 0.00 | 48 | |
| 20260508192641 | 33 | 131 | 0.0 | 0.0 | 0.00 | 0.00 | 0.00 | 44 | |
| 20260508192133 | 33 | 131 | 0.0 | 0.0 | 0.00 | 0.00 | 0.00 | 42 | |
| 20260508191624 | 33 | 108 | 0.0 | 0.0 | 0.00 | 0.00 | 0.00 | 41 | |
| 20260508191115 | 33 | 130 | 0.0 | 0.0 | 0.00 | 0.00 | 0.00 | 41 | |
| 20260508190607 | 33 | 146 | 1.6 | 0.0 | 0.00 | 0.00 | 0.00 | 41 | |
| 20260508190058 | 33 | 170 | 0.0 | 0.0 | 0.00 | 0.00 | 0.00 | 41 | |
| 20260508185550 | 33 | 272 | 1.6 | 0.0 | 0.00 | 0.00 | 0.00 | 41 | |
| 20260508184022 | 33 | 254 | 1.6 | 0.0 | 0.00 | 0.00 | 0.00 | 41 | |
| 20260508183514 | 33 | 248 | 1.6 | 0.0 | 0.00 | 0.00 | 0.00 | 41 | |
| 20260508183006 | 33 | 242 | 1.6 | 0.0 | 0.00 | 0.00 | 0.00 | 43 | |
| 20260508182457 | 33 | 260 | 1.6 | 0.0 | 0.00 | 0.00 | 0.00 | 42 | |
| 20260508181948 | 33 | 275 | 1.6 | 0.0 | 0.00 | 0.00 | 0.00 | 42 | |
| 20260508181440 | 33 | 268 | 1.6 | 0.0 | 0.00 | 0.00 | 0.00 | 41 | |
| 20260508180931 | 33 | 249 | 1.6 | 0.0 | 0.00 | 0.00 | 0.00 | 41 | |
| 20260508180422 | 33 | 239 | 3.2 | 0.0 | 0.00 | 0.00 | 0.00 | 41 | |
| 20260508175913 | 33 | 257 | 1.6 | 0.0 | 0.00 | 0.00 | 0.00 | 42 | |
| 20260508175404 | 33 | 263 | 1.6 | 0.0 | 0.00 | 0.00 | 0.00 | 42 | |
| 20260508174855 | 33 | 250 | 1.6 | 0.0 | 0.00 | 0.00 | 0.00 | 43 | |
| 20260508174347 | 33 | 246 | 1.6 | 0.0 | 0.00 | 0.00 | 0.00 | 37 | |
| 20260508173329 | 33 | 233 | 3.2 | 0.0 | 0.00 | 0.00 | 0.00 | 36 | |
| 20260508172820 | 33 | 277 | 3.2 | 0.0 | 0.00 | 0.00 | 0.00 | 37 | |
| 20260508172311 | 33 | 291 | 4.8 | 0.0 | 0.00 | 0.00 | 0.00 | 36 | |
| 20260508171802 | 33 | 297 | 3.2 | 0.0 | 0.00 | 0.00 | 0.00 | 36 | |
| 20260508171254 | 33 | 278 | 3.2 | 0.0 | 0.00 | 0.00 | 0.00 | 36 | |
| 20260508170745 | 33 | 278 | 6.4 | 0.0 | 0.00 | 0.00 | 0.00 | 36 | |
| 20260508170236 | 33 | 285 | 4.8 | 0.0 | 0.00 | 0.00 | 0.00 | 36 | |
| 20260508165727 | 33 | 300 | 6.4 | 0.0 | 0.00 | 0.00 | 0.00 | 36 | |
| 20260508165218 | 33 | 266 | 3.2 | 0.0 | 0.00 | 0.00 | 0.00 | 36 | |
| 20260508164709 | 33 | 268 | 4.8 | 0.0 | 0.00 | 0.00 | 0.00 | 37 | |
| 20260508164201 | 33 | 260 | 6.4 | 0.0 | 0.00 | 0.00 | 0.00 | 37 | |
| 20260508163652 | 33 | 276 | 4.8 | 0.0 | 0.00 | 0.00 | 0.00 | 37 | |
| 20260508163144 | 33 | 283 | 6.4 | 0.0 | 0.00 | 0.00 | 0.00 | 37 | |
| 20260508162635 | 33 | 266 | 4.8 | 0.0 | 0.00 | 0.00 | 0.00 | 37 | |
| 20260508162126 | 33 | 342 | 4.8 | 0.0 | 0.00 | 0.00 | 0.00 | 37 | |
| 20260508161617 | 33 | 305 | 6.4 | 0.0 | 0.00 | 0.00 | 0.00 | 37 | |
| 20260508161108 | 33 | 302 | 8.0 | 0.0 | 0.00 | 0.00 | 0.00 | 37 | |
| 20260508160559 | 33 | 324 | 6.4 | 0.0 | 0.00 | 0.00 | 0.00 | 37 | |
| 20260508160051 | 33 | 297 | 6.4 | 0.0 | 0.00 | 0.00 | 0.00 | 37 | |
| 20260508155542 | 33 | 321 | 3.2 | 0.0 | 0.00 | 0.00 | 0.00 | 37 | |
| 20260508155033 | 33 | 306 | 4.8 | 0.0 | 0.00 | 0.00 | 0.00 | 37 | |
| 20260508154525 | 33 | 332 | 6.4 | 0.0 | 0.00 | 0.00 | 0.00 | 37 | |
| 20260508154017 | 33 | 332 | 3.2 | 0.0 | 0.00 | 0.00 | 0.00 | 37 | |
| 20260508153508 | 33 | 278 | 6.4 | 0.0 | 0.00 | 0.00 | 0.00 | 37 | |
| 20260508152959 | 32 | 328 | 4.8 | 0.0 | 0.00 | 0.00 | 0.00 | 37 | |
| 20260508152451 | 32 | 332 | 6.4 | 0.0 | 0.00 | 0.00 | 0.00 | 38 | |
| 20260508151942 | 32 | 320 | 4.8 | 0.0 | 0.00 | 0.00 | 0.00 | 38 | |
| 20260508151434 | 32 | 294 | 6.4 | 0.0 | 0.00 | 0.00 | 0.00 | 39 | |
| 20260508125532 | 33 | 242 | 1.6 | 0.0 | 0.00 | 0.00 | 0.00 | 26 | |
| 20260508125024 | 33 | 56 | 1.6 | 0.0 | 0.00 | 0.00 | 0.00 | 26 | |
| 20260508124516 | 33 | 238 | 1.6 | 0.0 | 0.00 | 0.00 | 0.00 | 26 | |
| 20260508124007 | 33 | 174 | 0.0 | 0.0 | 0.00 | 0.00 | 0.00 | 26 | |
| 20260508123458 | 33 | 257 | 1.6 | 0.0 | 0.00 | 0.00 | 0.00 | 27 | |
| 20260508122950 | 33 | 148 | 0.0 | 0.0 | 0.00 | 0.00 | 0.00 | 26 | |
| 20260508121422 | 33 | 239 | 1.6 | 0.0 | 0.00 | 0.00 | 0.00 | 26 | |
| 20260508120403 | 33 | 198 | 1.6 | 0.0 | 0.00 | 0.00 | 0.00 | 27 | |
| 20260508115855 | 33 | 221 | 1.6 | 0.0 | 0.00 | 0.00 | 0.00 | 27 | |
| 20260508115346 | 33 | 207 | 0.0 | 0.0 | 0.00 | 0.00 | 0.00 | 27 | |
| 20260508114837 | 33 | 237 | 1.6 | 0.0 | 0.00 | 0.00 | 0.00 | 28 | |
| 20260508114328 | 33 | 195 | 3.2 | 0.0 | 0.00 | 0.00 | 0.00 | 28 | |
| 20260508113820 | 33 | 185 | 1.6 | 0.0 | 0.00 | 0.00 | 0.00 | 27 | |
| 20260508113311 | 33 | 178 | 1.6 | 0.0 | 0.00 | 0.00 | 0.00 | 27 | |
| 20260508112802 | 33 | 216 | 1.6 | 0.0 | 0.00 | 0.00 | 0.00 | 28 | |
| 20260508111744 | 33 | 260 | 1.6 | 0.0 | 0.00 | 0.00 | 0.00 | 31 | |
| 20260508111236 | 33 | 104 | 1.6 | 0.0 | 0.00 | 0.00 | 0.00 | 30 | |
| 20260508110727 | 33 | 222 | 1.6 | 0.0 | 0.00 | 0.00 | 0.00 | 31 | |
| 20260508110219 | 33 | 317 | 1.6 | 0.0 | 0.00 | 0.00 | 0.00 | 31 | |
| 20260508105710 | 33 | 264 | 0.0 | 0.0 | 0.00 | 0.00 | 0.00 | 31 | |
| 20260508105201 | 33 | 231 | 0.0 | 0.0 | 0.00 | 0.00 | 0.00 | 30 | |
| 20260508104653 | 33 | 88 | 0.0 | 0.0 | 0.00 | 0.00 | 0.00 | 30 | |
| 20260508104144 | 33 | 52 | 0.0 | 0.0 | 0.00 | 0.00 | 0.00 | 30 | |
| 20260508103636 | 33 | 126 | 1.6 | 0.0 | 0.00 | 0.00 | 0.00 | 30 | |
| 20260508102617 | 33 | 35 | 3.2 | 0.0 | 0.00 | 0.00 | 0.00 | 30 | |
| 20260508102108 | 33 | 62 | 3.2 | 0.0 | 0.00 | 0.00 | 0.00 | 30 | |
| 20260508101559 | 33 | 66 | 0.0 | 0.0 | 0.00 | 0.00 | 0.00 | 30 | |
| 20260508101051 | 32 | 118 | 0.0 | 0.0 | 0.00 | 0.00 | 0.00 | 30 | |
| 20260508100542 | 32 | 34 | 3.2 | 0.0 | 0.00 | 0.00 | 0.00 | 32 | |
| 20260508100033 | 33 | 256 | 0.0 | 0.0 | 0.00 | 0.00 | 0.00 | 33 | |
| 20260508095524 | 33 | 192 | 0.0 | 0.0 | 0.00 | 0.00 | 0.00 | 33 | |
| 20260508095016 | 33 | 277 | 3.2 | 0.0 | 0.00 | 0.00 | 0.00 | 33 | |
| 20260508094507 | 33 | 24 | 1.6 | 0.0 | 0.00 | 0.00 | 0.00 | 33 | |
| 20260508093959 | 33 | 242 | 3.2 | 0.0 | 0.00 | 0.00 | 0.00 | 31 | |
| 20260508093448 | 33 | 189 | 3.2 | 0.0 | 0.00 | 0.00 | 0.00 | 33 | |
| 20260508092940 | 33 | 113 | 1.6 | 0.0 | 0.00 | 0.00 | 0.00 | 33 | |
| 20260508092431 | 33 | 190 | 1.6 | 0.0 | 0.00 | 0.00 | 0.00 | 33 | |
| 20260508091923 | 33 | 9 | 1.6 | 0.0 | 0.00 | 0.00 | 0.00 | 32 | |
| 20260508091414 | 33 | 359 | 1.6 | 0.0 | 0.00 | 0.00 | 0.00 | 33 | |
| 20260508090905 | 33 | 160 | 3.2 | 0.0 | 0.00 | 0.00 | 0.00 | 33 | |
| 20260508085847 | 32 | 121 | 1.6 | 0.0 | 0.00 | 0.00 | 0.00 | 35 | |
| 20260508085338 | 33 | 79 | 1.6 | 0.0 | 0.00 | 0.00 | 0.00 | 34 | |
| 20260508084829 | 33 | 44 | 1.6 | 0.0 | 0.00 | 0.00 | 0.00 | 34 | |
| 20260508084321 | 33 | 358 | 3.2 | 0.0 | 0.00 | 0.00 | 0.00 | 33 | |
| 20260508083812 | 33 | 193 | 0.0 | 0.0 | 0.00 | 0.00 | 0.00 | 36 | |
| 20260508083304 | 32 | 192 | 0.0 | 0.0 | 0.00 | 0.00 | 0.00 | 30 | |
| 20260508082755 | 33 | 41 | 3.2 | 0.0 | 0.00 | 0.00 | 0.00 | 30 | |
| 20260508082247 | 33 | 30 | 1.6 | 0.0 | 0.00 | 0.00 | 0.00 | 31 | |
| 20260508081738 | 33 | 198 | 1.6 | 0.0 | 0.00 | 0.00 | 0.00 | 30 | |
| 20260508081229 | 33 | 63 | 1.6 | 0.0 | 0.00 | 0.00 | 0.00 | 32 | |
| 20260508080720 | 32 | 181 | 3.2 | 0.0 | 0.00 | 0.00 | 0.00 | 31 | |
| 20260508080211 | 32 | 17 | 0.0 | 0.0 | 0.00 | 0.00 | 0.00 | 31 | |
| 20260508075703 | 32 | 167 | 0.0 | 0.0 | 0.00 | 0.00 | 0.00 | 31 | |
| 20260508074618 | 32 | 36 | 1.6 | 0.0 | 0.00 | 0.00 | 0.00 | 33 | |
| 20260508074110 | 32 | 157 | 1.6 | 0.0 | 0.00 | 0.00 | 0.00 | 34 | |
| 20260508073601 | 32 | 221 | 1.6 | 0.0 | 0.00 | 0.00 | 0.00 | 33 | |
| 20260508073052 | 32 | 207 | 1.6 | 0.0 | 0.00 | 0.00 | 0.00 | 33 | |
| 20260508072543 | 32 | 113 | 0.0 | 0.0 | 0.00 | 0.00 | 0.00 | 33 | |
| 20260508072034 | 32 | 173 | 4.8 | 0.0 | 0.00 | 0.00 | 0.00 | 32 | |
| 20260508071525 | 32 | 330 | 0.0 | 0.0 | 0.00 | 0.00 | 0.00 | 32 | |
| 20260508070507 | 32 | 51 | 1.6 | 0.0 | 0.00 | 0.00 | 0.00 | 30 | |
| 20260508065958 | 32 | 76 | 1.6 | 0.0 | 0.00 | 0.00 | 0.00 | 30 | |
| 20260508065450 | 32 | 31 | 3.2 | 0.0 | 0.00 | 0.00 | 0.00 | 30 | |
| 20260508064941 | 32 | 21 | 1.6 | 0.0 | 0.00 | 0.00 | 0.00 | 30 | |
| 20260508064433 | 32 | 33 | 3.2 | 0.0 | 0.00 | 0.00 | 0.00 | 33 | |
| 20260508063924 | 32 | 78 | 3.2 | 0.0 | 0.00 | 0.00 | 0.00 | 33 | |
| 20260508063412 | 32 | 346 | 0.0 | 0.0 | 0.00 | 0.00 | 0.00 | 32 | |
| 20260508062904 | 32 | 292 | 1.6 | 0.0 | 0.00 | 0.00 | 0.00 | 33 | |
| 20260508062355 | 32 | 199 | 0.0 | 0.0 | 0.00 | 0.00 | 0.00 | 31 | |
| 20260508061846 | 32 | 340 | 3.2 | 0.0 | 0.00 | 0.00 | 0.00 | 32 | |
| 20260508060252 | 32 | 65 | 1.6 | 0.0 | 0.00 | 0.00 | 0.00 | 34 | |
| 20260508055743 | 32 | 97 | 3.2 | 0.0 | 0.00 | 0.00 | 0.00 | 35 | |
| 20260508055235 | 32 | 52 | 1.6 | 0.0 | 0.00 | 0.00 | 0.00 | 36 | |
| 20260508054726 | 32 | 184 | 3.2 | 0.0 | 0.00 | 0.00 | 0.00 | 35 | |
| 20260508054217 | 32 | 53 | 3.2 | 0.0 | 0.00 | 0.00 | 0.00 | 34 | |
| 20260508053708 | 32 | 29 | 3.2 | 0.0 | 0.00 | 0.00 | 0.00 | 34 | |
| 20260508053159 | 32 | 267 | 1.6 | 0.0 | 0.00 | 0.00 | 0.00 | 36 | |
| 20260508051739 | 32 | 71 | 3.2 | 0.0 | 0.00 | 0.00 | 0.00 | 38 | |
| 20260508051230 | 32 | 80 | 1.6 | 0.0 | 0.00 | 0.00 | 0.00 | 38 | |
| 20260508050212 | 32 | 244 | 0.0 | 0.0 | 0.00 | 0.00 | 0.00 | 39 | |
| 20260508045704 | 32 | 188 | 1.6 | 0.0 | 0.00 | 0.00 | 0.00 | 37 | |
| 20260508045155 | 32 | 217 | 1.6 | 0.0 | 0.00 | 0.00 | 0.00 | 37 | |
| 20260508044646 | 31 | 80 | 1.6 | 0.0 | 0.00 | 0.00 | 0.00 | 38 | |
| 20260508044137 | 31 | 54 | 3.2 | 0.0 | 0.00 | 0.00 | 0.00 | 37 | |
| 20260508043629 | 31 | 195 | 0.0 | 0.0 | 0.00 | 0.00 | 0.00 | 37 | |
| 20260508043120 | 31 | 4 | 3.2 | 0.0 | 0.00 | 0.00 | 0.00 | 39 | |
| 20260508042611 | 31 | 55 | 3.2 | 0.0 | 0.00 | 0.00 | 0.00 | 42 | |
| 20260508042103 | 32 | 50 | 4.8 | 0.0 | 0.00 | 0.00 | 0.00 | 43 | |
| 20260508041554 | 32 | 36 | 1.6 | 0.0 | 0.00 | 0.00 | 0.00 | 43 | |
| 20260508041046 | 32 | 230 | 1.6 | 0.0 | 0.00 | 0.00 | 0.00 | 43 | |
| 20260508040537 | 32 | 4 | 1.6 | 0.0 | 0.00 | 0.00 | 0.00 | 44 | |
| 20260508040028 | 32 | 74 | 1.6 | 0.0 | 0.00 | 0.00 | 0.00 | 44 | |
| 20260508035519 | 32 | 16 | 3.2 | 0.0 | 0.00 | 0.00 | 0.00 | 43 | |
| 20260508035010 | 31 | 262 | 1.6 | 0.0 | 0.00 | 0.00 | 0.00 | 41 | |
| 20260508034501 | 31 | 314 | 3.2 | 0.0 | 0.00 | 0.00 | 0.00 | 39 | |
| 20260508033952 | 31 | 347 | 1.6 | 0.0 | 0.00 | 0.00 | 0.00 | 39 | |
| 20260508033444 | 31 | 257 | 1.6 | 0.0 | 0.00 | 0.00 | 0.00 | 40 | |
| 20260508032935 | 31 | 298 | 1.6 | 0.0 | 0.00 | 0.00 | 0.00 | 45 | |
| 20260508032427 | 31 | 306 | 1.6 | 0.0 | 0.00 | 0.00 | 0.00 | 45 | |
| 20260508031918 | 31 | 321 | 1.6 | 0.0 | 0.00 | 0.00 | 0.00 | 46 | |
| 20260508031409 | 31 | 330 | 3.2 | 0.0 | 0.00 | 0.00 | 0.00 | 49 | |
| 20260508030901 | 31 | 322 | 3.2 | 0.0 | 0.00 | 0.00 | 0.00 | 48 | |
| 20260508030352 | 31 | 295 | 3.2 | 0.0 | 0.00 | 0.00 | 0.00 | 48 | |
| 20260508025844 | 31 | 315 | 3.2 | 0.0 | 0.00 | 0.00 | 0.00 | 48 | |
| 20260508025335 | 31 | 308 | 1.6 | 0.0 | 0.00 | 0.00 | 0.00 | 47 | |
| 20260508024826 | 31 | 264 | 4.8 | 0.0 | 0.00 | 0.00 | 0.00 | 47 | |
| 20260508024317 | 31 | 259 | 3.2 | 0.0 | 0.00 | 0.00 | 0.00 | 48 | |
| 20260508023809 | 31 | 289 | 3.2 | 0.0 | 0.00 | 0.00 | 0.00 | 48 | |
| 20260508023300 | 31 | 275 | 4.8 | 0.0 | 0.00 | 0.00 | 0.00 | 48 | |
| 20260508022751 | 31 | 306 | 1.6 | 0.0 | 0.00 | 0.00 | 0.00 | 48 | |
| 20260508022242 | 31 | 343 | 4.8 | 0.0 | 0.00 | 0.00 | 0.00 | 49 | |
| 20260508021733 | 31 | 327 | 6.4 | 0.0 | 0.00 | 0.00 | 0.00 | 49 | |
| 20260508021224 | 31 | 333 | 4.8 | 0.0 | 0.00 | 0.00 | 0.00 | 50 | |
| 20260508020715 | 31 | 285 | 1.6 | 0.0 | 0.00 | 0.00 | 0.00 | 49 | |
| 20260508020206 | 31 | 314 | 4.8 | 0.0 | 0.00 | 0.00 | 0.00 | 49 | |
| 20260508015658 | 31 | 314 | 3.2 | 0.0 | 0.00 | 0.00 | 0.00 | 47 | |
| 20260508015149 | 31 | 323 | 6.4 | 0.0 | 0.00 | 0.00 | 0.00 | 45 | |
| 20260508014641 | 31 | 339 | 6.4 | 0.0 | 0.00 | 0.00 | 0.00 | 45 | |
| 20260508014132 | 31 | 307 | 4.8 | 0.0 | 0.00 | 0.00 | 0.00 | 46 |